Wind_Gust
16 19 17 18 17 20 23 23 26 27 30 30 27 24 23 17 15 15 18 21 20 29 24 24 19 20 21 18 20 19 19 16 19 21 15 20 16 20 21 22 20 22 23 24 25 26 26 20 18 18 17 17 17 17 17 17 17 17 17 17 17 17 17 17 18 18 18 18 19 18 18 18 18 17 16 16 16 15 16 16 17 18 19 19 18 20 20 20 21 20 21 21 20 20 20 19 17
20 18 16 15 20 22 27 22 34 23 28 30 27 21 21 24 15 21 16 20 23 18 17 20 19 21 20 17 18 22 20 21 17 20 17 26 21 23 24 21 20 23 21 24 25 24 25 26 16 17 17 18 17 17 17 17 16 17 17 17 18 18 18 18 18 18 19 18 18 18 18 18 18 17 16 16 16 16 16 17 18 19 19 18 20 19 20 21 20 20 21 21 20 19 19 18 17
21 20 19 18 22 26 25 25 32 27 28 30 25 27 22 18 19 14 14 16 16 14 16 19 17 17 19 19 18 22 17 11 13 22 19 22 22 25 22 23 21 22 23 22 26 25 24 23 15 16 17 18 18 17 17 16 16 16 16 17 18 18 18 18 19 19 19 18 17 18 18 17 17 17 16 16 16 16 17 18 18 19 18 18 18 20 19 20 21 20 20 20 20 19 18 18 16
22 21 24 20 27 23 29 25 26 28 27 22 21 24 26 17 19 11 11 14 15 12 16 21 21 18 17 22 16 14 16 14 12 21 19 19 16 26 24 25 22 23 24 25 23 23 22 22 17 16 17 17 18 17 17 17 16 16 17 17 18 18 19 19 19 19 20 18 16 16 16 17 17 16 16 16 16 16 17 17 18 18 18 17 20 19 19 20 20 20 20 20 19 18 18 17 16
21 21 21 25 27 26 27 27 26 26 27 22 21 19 14 16 15 13 15 12 11 12 14 19 21 16 20 18 15 13 16 14 15 16 23 16 20 25 27 23 25 26 25 27 22 23 24 20 19 17 17 18 17 17 17 17 16 17 17 17 18 19 19 19 19 19 20 19 16 16 16 16 16 16 16 16 16 16 15 15 16 18 17 20 19 18 19 19 20 19 19 18 18 17 17 16 16
21 23 20 24 30 23 31 27 25 26 23 22 22 18 18 18 19 13 13 11 14 12 16 15 19 17 15 14 18 14 13 11 10 13 18 17 22 25 26 24 25 26 25 26 22 21 25 19 19 17 16 17 17 16 16 16 17 18 18 18 19 19 20 20 20 19 19 17 16 16 16 17 16 16 16 16 16 15 15 17 17 16 18 20 18 19 19 19 19 18 18 17 18 17 16 16 15
26 22 26 25 31 29 28 27 26 27 29 25 23 17 14 15 15 13 13 15 14 15 13 19 24 20 19 18 21 19 14 10 10 12 12 21 23 23 22 23 23 24 24 24 24 25 26 19 19 17 17 17 17 16 16 16 17 18 18 19 19 20 21 22 21 20 18 17 17 17 16 16 16 16 15 16 16 15 17 17 16 17 18 19 18 18 19 19 19 18 17 17 17 16 14 14 14
23 27 25 27 27 28 27 25 26 24 23 21 19 18 14 14 11 13 14 23 20 17 20 14 15 20 17 14 15 13 12 11 10 14 18 23 22 25 23 24 25 24 24 22 21 23 22 19 18 17 17 17 16 16 16 16 17 18 19 22 19 20 21 21 20 19 18 18 17 18 17 17 16 16 16 15 15 15 17 17 18 18 18 20 16 17 17 18 18 17 16 15 15 15 14 13 13
24 28 21 27 28 27 26 28 25 22 26 16 21 21 22 23 15 14 15 21 27 21 14 15 16 18 17 14 15 12 14 12 9 15 19 23 23 22 23 23 24 22 20 22 23 23 23 18 18 16 16 16 16 15 16 18 18 20 22 21 20 20 19 18 18 19 18 17 17 17 17 17 16 16 15 15 15 16 18 18 18 18 19 18 16 16 17 16 16 15 14 14 14 13 13 12 13
27 28 25 29 23 26 25 24 25 20 24 20 18 19 21 21 19 17 17 32 33 20 19 17 17 17 13 13 15 13 14 11 13 18 19 23 22 21 23 23 21 21 20 22 23 24 22 21 18 16 16 15 14 14 15 18 18 20 22 22 21 21 21 19 19 18 17 18 18 18 17 17 16 16 15 15 15 14 18 17 16 18 18 17 17 16 15 15 14 13 12 12 13 13 12 12 12
31 29 26 28 26 26 25 22 23 20 20 22 20 18 19 22 18 17 29 29 30 28 20 15 17 15 13 14 19 14 12 12 16 19 21 23 26 23 25 24 21 19 21 20 20 23 24 22 21 17 16 15 14 14 15 16 19 19 21 21 21 20 20 19 18 17 17 18 18 18 17 17 17 17 16 15 15 15 18 19 17 18 18 17 16 15 14 13 12 11 11 11 12 12 12 11 12
27 26 27 26 26 24 22 25 22 23 19 19 24 17 18 17 26 35 29 29 28 23 21 16 18 18 15 15 16 14 11 14 19 19 19 26 23 27 24 22 23 24 20 19 20 21 22 22 23 20 18 16 17 18 17 19 22 21 21 19 21 21 20 19 17 16 17 17 18 17 17 17 17 18 16 16 15 19 19 17 16 16 16 16 15 14 13 12 11 11 10 11 11 12 12 11 12
26 20 24 26 24 25 23 24 22 24 22 25 19 30 24 24 33 34 31 32 30 18 23 22 16 19 15 15 15 13 13 14 17 19 20 23 23 25 22 24 24 25 20 19 20 21 22 21 23 22 19 19 19 21 21 21 22 20 20 18 19 21 21 19 18 18 19 18 18 17 17 17 17 18 17 17 16 17 18 17 16 15 15 14 14 13 13 12 11 10 10 11 12 12 12 12 12
23 20 22 25 23 25 27 22 23 24 25 38 27 21 25 23 25 29 31 29 28 23 14 17 17 17 13 14 16 12 15 16 19 18 18 28 28 29 22 20 21 20 19 19 18 18 20 19 21 21 23 22 22 22 22 22 20 19 19 19 20 21 20 19 18 18 18 18 18 18 18 17 18 18 18 17 16 16 17 17 15 15 14 14 14 12 12 11 10 10 10 11 12 13 13 13 12
24 19 23 22 23 23 22 29 25 23 26 35 34 22 23 22 23 25 23 24 21 16 18 22 21 23 16 14 15 12 16 18 19 17 18 22 27 21 23 23 19 19 19 19 18 17 18 18 19 20 19 21 23 21 21 23 20 18 18 19 18 20 20 19 18 18 19 18 19 18 18 18 18 19 19 18 17 17 16 17 15 14 15 15 14 12 11 10 10 11 11 12 13 15 15 14 13
24 22 21 21 23 26 25 27 24 29 28 25 23 30 30 20 20 18 23 20 20 16 20 17 22 20 19 18 15 18 19 20 19 17 19 20 22 19 19 18 17 17 18 20 17 16 16 18 18 20 18 20 20 21 22 21 22 21 18 21 20 19 20 19 18 18 19 19 19 20 19 21 19 21 20 22 18 17 16 16 15 15 15 15 14 12 10 10 11 12 12 13 14 14 14 13 13
19 23 23 24 21 29 26 27 24 26 23 25 27 22 22 25 20 19 17 24 25 17 18 18 17 16 19 19 16 21 20 21 19 19 20 20 20 19 20 18 20 20 18 18 16 16 18 20 19 18 16 19 20 21 20 21 25 24 19 21 23 21 19 18 18 19 18 18 19 19 20 20 19 21 22 21 19 20 17 17 16 16 15 14 14 13 10 10 11 11 12 14 15 15 14 13 12
19 23 22 23 27 23 29 26 24 22 25 30 33 23 28 20 23 18 23 30 17 14 16 14 16 22 24 19 18 19 21 21 21 19 21 20 17 19 18 19 22 19 19 18 16 15 17 20 19 17 17 24 23 22 17 19 21 20 22 23 21 21 18 18 21 21 19 21 18 22 19 18 17 18 18 16 19 22 21 18 18 16 15 15 14 13 10 10 10 11 13 14 15 15 17 19 16
22 21 26 23 20 28 15 23 36 29 23 29 30 18 21 31 28 22 26 21 26 17 13 12 16 19 23 18 18 18 21 19 19 20 21 21 20 19 21 19 18 18 18 18 19 18 16 16 19 19 19 20 27 22 20 17 18 18 20 20 20 17 20 21 20 20 20 21 21 20 20 18 20 21 18 17 18 15 22 18 18 17 16 15 15 14 11 10 11 12 13 14 15 17 20 15 18
23 24 26 31 24 28 25 25 33 31 36 31 20 19 17 19 21 17 20 22 27 17 12 14 16 17 20 19 19 20 19 19 19 18 21 20 18 19 21 19 18 18 17 20 19 16 16 16 18 16 19 23 20 23 20 17 17 16 17 17 17 18 19 20 18 18 19 20 23 21 21 20 20 18 15 19 19 21 22 19 19 18 16 15 16 14 12 9 10 11 12 13 12 14 18 16 15
26 29 31 30 23 25 22 30 27 21 32 25 29 24 26 23 13 19 19 28 20 16 13 16 15 24 19 21 19 19 19 18 16 17 19 20 18 16 16 17 19 16 16 19 21 17 15 15 17 19 18 20 18 21 20 17 19 17 16 17 17 17 18 17 18 17 18 19 19 20 22 19 20 18 20 19 18 19 20 20 23 22 20 20 17 17 17 19 15 17 17 17 15 17 19 13 11
28 30 33 26 17 24 14 25 23 15 22 15 19 20 22 20 14 23 28 27 19 16 14 13 20 23 24 22 21 17 18 17 18 17 19 18 17 16 15 16 14 13 14 17 16 17 16 15 16 16 14 14 18 23 20 20 18 18 18 17 17 17 16 16 17 17 18 16 17 18 21 19 18 19 18 19 19 18 19 19 21 21 20 20 20 18 17 17 15 17 16 16 14 13 15 12 10
23 27 23 23 15 17 15 13 17 16 14 12 19 17 14 19 19 21 20 19 15 15 17 14 14 20 25 25 24 19 19 20 18 17 19 18 17 17 18 15 16 16 15 15 20 18 18 16 16 17 15 16 14 16 20 21 21 20 17 16 17 17 17 15 16 16 17 15 16 14 17 18 18 19 20 18 18 18 18 20 21 20 20 20 21 18 17 16 15 14 14 13 10 11 11 10 10
18 14 12 12 12 15 14 15 12 13 13 16 18 18 20 20 14 24 21 21 17 16 19 16 17 21 24 26 23 23 18 18 18 18 14 17 18 19 21 17 15 16 21 16 16 14 16 18 15 15 14 14 15 15 14 22 22 20 17 19 20 17 17 17 17 16 15 19 17 14 14 16 18 19 18 19 18 18 17 21 19 20 20 21 20 17 17 17 15 14 12 11 10 9 12 9 10
20 16 13 16 14 14 15 12 12 11 11 16 17 19 16 18 17 17 20 25 18 18 17 18 17 20 19 21 19 18 18 17 17 15 13 17 17 18 19 17 16 16 18 17 19 19 16 16 15 13 14 17 18 15 19 18 22 21 20 18 21 29 24 15 15 16 16 15 13 14 14 14 16 17 19 19 19 16 14 17 16 18 19 20 19 16 17 16 14 14 12 12 10 9 7 7 8
16 15 14 14 17 12 13 16 12 12 13 14 13 15 19 17 24 22 28 25 19 19 18 20 16 16 17 17 18 17 19 17 17 17 15 17 20 18 18 16 17 16 17 19 17 15 17 16 18 17 18 18 18 15 19 20 20 17 22 17 19 19 19 24 17 16 19 16 15 14 14 14 13 14 15 16 17 15 14 13 12 14 15 17 17 16 15 15 14 13 12 12 15 12 12 11 9
17 17 16 16 19 16 13 19 15 15 14 14 19 19 18 18 25 16 16 24 20 17 18 18 18 17 17 16 17 18 19 18 16 16 18 16 20 17 19 18 20 19 19 22 23 20 17 20 16 15 14 15 16 16 21 22 19 19 19 24 24 22 15 21 16 16 15 24 17 15 14 15 14 14 15 16 15 15 15 16 15 14 15 17 15 15 13 13 13 13 14 12 11 12 12 12 12
16 16 18 15 16 16 13 13 14 19 18 14 23 18 19 26 27 25 26 21 23 22 18 16 16 19 20 17 22 18 17 18 18 16 17 19 20 19 19 20 21 19 18 23 20 17 21 21 16 12 14 13 14 14 20 27 18 17 20 16 21 26 18 19 16 15 16 16 23 24 15 15 14 15 13 14 15 15 16 16 14 14 15 17 16 16 14 13 12 13 12 10 9 10 12 10 9
17 15 22 18 15 23 18 20 15 14 20 19 19 23 23 25 29 21 24 26 20 18 18 16 16 18 23 23 22 22 19 18 18 17 16 18 19 19 18 17 20 19 17 18 19 18 19 19 13 12 12 11 15 17 23 21 16 15 20 20 14 23 25 15 16 19 16 18 17 19 23 28 18 16 14 12 14 15 14 13 14 15 15 16 14 15 15 12 12 10 10 10 11 11 9 9 11
17 20 22 22 23 27 21 16 14 17 21 18 18 25 26 35 30 27 26 22 21 20 19 18 17 22 21 20 20 18 19 16 19 17 19 18 17 17 17 17 17 17 18 17 21 20 15 12 12 10 11 11 10 14 14 16 21 24 20 18 18 15 20 22 19 18 18 16 16 16 17 23 25 27 16 14 14 15 16 15 14 17 15 13 14 13 14 13 12 12 12 13 10 11 12 10 11
26 20 19 25 20 22 17 18 15 20 22 16 16 26 23 20 24 24 23 21 24 18 18 17 16 19 23 24 21 19 22 18 17 16 18 16 17 17 17 17 17 17 16 18 23 21 19 14 13 13 12 11 10 10 12 14 19 21 19 24 23 21 22 16 19 18 18 21 17 16 20 25 18 24 22 15 15 15 15 17 16 16 15 14 14 14 13 13 12 12 12 13 11 12 12 12 13
22 21 23 21 22 22 20 16 16 23 19 16 16 27 21 22 22 20 22 23 28 22 18 16 16 17 20 22 21 20 22 22 19 17 17 16 16 18 19 19 19 18 18 19 19 18 20 16 13 13 14 13 12 11 11 13 19 19 19 11 20 18 18 20 13 17 20 18 16 14 14 20 22 23 19 17 17 15 16 15 15 14 16 17 21 14 16 16 17 12 11 11 10 11 14 14 18
21 22 14 24 16 19 20 20 14 16 21 15 20 26 26 22 22 20 20 19 22 22 24 14 16 16 17 23 23 19 23 20 21 19 18 17 18 19 20 19 20 19 19 20 19 17 17 16 14 13 12 14 13 13 13 13 16 14 18 14 18 23 15 12 17 17 13 15 15 13 16 14 16 19 19 23 17 15 18 16 15 14 16 15 15 16 16 18 18 16 15 14 12 13 19 24 23
19 18 17 16 22 20 20 18 19 12 15 21 20 24 21 22 21 21 23 21 18 24 20 18 18 19 17 17 18 21 22 22 23 21 21 21 19 19 19 19 19 20 19 21 20 19 16 16 15 14 13 14 13 14 13 11 12 14 13 15 15 16 18 17 18 13 14 12 14 21 16 14 15 17 19 20 19 18 15 16 15 16 16 16 17 15 12 15 16 18 14 9 10 11 15 19 17
12 14 14 20 17 15 22 20 20 16 15 20 18 22 22 27 25 23 20 23 21 24 23 23 19 20 20 18 19 18 23 20 24 23 23 22 18 19 20 20 20 22 20 21 20 19 17 16 15 16 16 15 14 15 15 12 11 9 14 19 14 16 21 16 17 14 12 16 12 15 21 18 15 18 19 17 18 16 21 22 20 18 17 15 14 13 15 14 12 13 13 16 15 18 17 22 15
16 21 24 21 17 17 25 20 13 13 18 21 19 22 19 32 28 22 22 20 22 18 19 24 19 21 22 19 21 20 20 20 21 25 23 23 21 19 20 21 21 22 23 26 23 20 18 20 17 17 17 17 16 16 14 13 13 13 15 12 15 18 22 22 19 15 16 18 16 18 16 19 16 14 16 14 16 15 13 15 16 16 16 14 13 14 12 11 12 12 14 15 16 15 15 12 12
18 16 16 20 24 17 19 22 12 9 18 20 21 17 18 27 26 26 22 21 18 17 17 18 19 22 20 20 21 20 18 18 19 25 23 24 23 21 21 21 21 23 25 27 24 21 22 24 20 20 18 17 18 18 18 17 18 14 20 18 15 16 19 20 17 17 20 21 21 24 20 19 18 16 15 15 19 19 15 12 14 14 17 15 13 13 14 12 17 15 11 9 13 17 12 11 14
19 21 21 30 18 21 20 14 15 15 17 20 17 16 18 18 23 29 31 22 19 19 19 19 19 23 20 21 21 21 18 18 20 19 22 21 23 22 22 21 21 25 27 27 23 22 22 22 22 21 19 18 20 19 18 19 18 19 18 21 25 23 17 19 15 16 23 23 21 23 21 20 18 18 16 19 15 16 13 19 18 14 12 12 13 12 13 16 17 17 18 16 20 17 13 13 15
17 22 23 27 24 21 24 21 11 15 15 22 19 19 18 19 18 21 28 23 19 18 18 18 19 20 25 20 19 18 20 19 20 21 23 23 23 22 23 22 25 24 25 26 25 21 22 23 21 20 20 20 19 19 19 19 17 17 19 24 26 25 24 19 18 18 19 21 17 16 23 22 19 19 24 24 16 14 14 14 18 20 19 15 13 13 14 15 18 19 20 16 15 14 15 15 12
22 23 24 25 20 20 20 16 15 13 19 21 21 22 21 20 16 16 18 21 20 19 18 17 17 20 21 20 18 19 19 20 20 23 24 24 24 24 23 23 28 31 31 22 23 22 25 23 21 21 20 20 19 20 19 18 18 17 17 19 22 22 23 23 22 17 17 17 19 20 23 20 25 26 24 27 22 17 15 19 18 15 24 21 16 15 17 15 16 15 13 15 15 14 14 11 12
24 21 24 27 25 21 21 16 14 12 21 21 21 25 27 23 23 23 21 19 20 17 17 18 19 19 18 18 19 19 24 20 20 23 24 23 24 24 24 23 23 28 32 28 24 23 24 23 22 23 23 22 22 19 21 18 18 18 19 20 20 18 18 23 22 17 19 20 22 22 22 25 26 23 19 25 22 17 16 13 13 12 13 14 20 19 14 17 18 14 16 15 14 15 18 12 14
26 26 24 20 18 18 17 18 18 23 24 23 23 25 22 14 18 17 16 21 18 18 19 20 20 20 20 22 20 20 20 19 21 21 22 23 24 24 24 25 28 26 31 29 26 24 21 22 22 22 21 22 23 21 20 20 20 20 21 20 19 23 24 22 23 21 19 20 25 22 23 26 24 26 27 23 20 18 16 15 14 13 14 16 16 17 18 17 16 18 14 14 16 15 14 13 16
23 20 20 21 17 17 18 22 23 25 24 21 17 23 22 13 16 19 20 18 18 18 18 19 19 20 22 21 22 23 22 23 21 20 22 25 24 23 24 26 30 28 29 23 25 24 23 22 22 22 22 21 23 21 21 21 20 19 19 20 20 21 20 23 20 16 16 16 15 20 23 26 24 27 26 25 20 20 19 16 16 17 16 15 16 17 18 17 19 15 17 16 16 15 14 17 15
24 21 17 14 16 19 22 23 22 25 21 21 18 25 26 24 21 14 13 15 18 18 19 20 19 19 20 23 24 22 24 23 23 22 23 23 24 24 25 25 26 29 27 23 23 23 25 23 21 21 20 21 19 19 21 22 20 20 18 20 18 18 19 18 18 17 15 15 14 18 19 23 24 26 23 22 23 21 22 21 19 18 19 17 17 20 17 16 16 15 16 16 13 16 17 16 17
23 12 14 16 15 18 20 21 22 23 22 23 22 19 26 23 20 18 19 21 21 21 21 20 20 21 22 22 26 25 23 26 26 24 23 24 24 25 24 24 24 24 24 23 23 22 22 23 22 22 23 21 19 20 20 21 21 19 20 20 18 18 18 18 18 17 17 16 16 17 18 17 18 26 28 24 17 21 22 21 21 18 19 19 19 17 19 18 15 17 18 18 15 17 16 12 15
22 21 15 20 20 20 19 22 21 23 23 21 21 18 26 22 19 19 19 18 20 18 17 18 17 17 15 16 15 24 24 25 30 28 22 22 23 23 22 23 24 25 24 22 22 21 21 21 23 23 23 22 20 20 21 21 20 20 19 18 18 18 17 18 17 19 18 19 19 19 18 18 18 18 17 16 17 17 17 17 19 19 18 19 17 17 20 16 13 15 17 17 19 15 14 15 16
15 16 19 21 21 21 20 21 22 21 20 23 24 22 19 23 17 18 14 17 14 15 14 12 12 13 12 11 13 15 20 27 28 30 31 25 22 22 22 23 22 23 22 23 23 22 21 22 22 22 23 22 20 21 21 21 21 20 19 19 20 19 18 18 18 19 19 19 20 19 19 18 17 18 17 16 16 17 16 17 16 17 16 15 16 15 15 15 14 14 15 14 15 15 15 14 16
18 23 22 22 24 19 19 21 19 20 23 23 24 25 18 21 17 19 18 18 14 13 14 14 14 15 15 12 11 9 11 17 27 26 29 26 21 21 22 23 23 23 23 25 23 23 23 23 23 23 22 22 20 21 21 21 21 21 19 19 20 20 19 18 19 19 20 19 18 18 18 17 17 16 16 16 16 16 16 16 16 16 16 16 16 16 15 15 15 14 16 16 14 16 16 16 15
23 23 23 23 22 23 24 22 20 22 23 17 19 13 19 24 22 20 16 14 12 10 12 15 14 15 14 13 12 11 12 12 14 15 24 25 21 23 23 23 23 23 24 24 25 23 23 23 23 23 23 22 21 20 21 21 21 20 20 19 19 19 21 20 19 19 18 18 17 17 17 18 17 17 17 17 15 16 16 16 16 17 16 17 16 15 15 15 15 16 17 16 16 17 17 17 18
24 26 23 24 24 23 20 22 20 21 21 18 20 13 24 20 24 18 15 18 16 12 11 10 11 12 13 15 13 16 17 16 13 14 17 19 21 22 23 23 24 24 24 26 24 24 23 23 23 24 24 22 21 20 21 21 20 19 19 19 19 20 20 20 19 18 18 17 17 17 17 17 17 16 16 16 16 17 17 16 16 16 16 15 15 15 15 15 15 16 16 16 17 17 17 16 18
28 22 27 24 25 27 20 22 21 20 19 16 19 17 20 20 18 16 22 20 15 13 13 12 14 14 13 14 15 16 13 13 15 15 18 19 21 21 22 23 23 23 23 25 25 25 24 24 25 24 24 23 22 21 20 20 21 19 19 19 20 19 19 20 19 18 18 18 17 16 16 16 15 16 16 15 16 17 16 16 16 16 16 15 15 15 15 15 14 14 14 15 15 15 15 16 17
25 26 25 28 29 18 28 18 19 19 18 18 21 22 14 18 20 14 16 14 15 14 14 13 13 14 13 15 16 15 13 14 16 17 15 17 21 21 22 23 23 23 23 24 25 25 25 25 25 25 25 23 23 22 20 20 19 19 18 19 20 19 19 19 19 19 19 18 17 17 17 16 16 15 14 14 15 15 15 15 16 16 15 15 16 16 16 16 15 15 15 15 16 16 16 16 17
24 28 31 28 21 27 22 17 20 15 21 28 21 25 27 22 23 21 16 14 13 13 12 13 12 13 12 13 13 13 14 15 12 12 15 17 17 18 20 20 21 21 24 25 26 26 25 26 26 26 25 23 23 22 22 21 20 19 20 20 20 19 19 19 19 18 18 19 18 17 17 17 15 15 15 14 16 15 16 16 16 16 16 15 15 16 16 15 15 16 16 16 17 16 16 17 17
30 26 23 20 23 26 24 23 15 20 24 21 23 27 25 26 22 19 17 16 14 18 16 14 12 12 13 13 12 13 12 11 9 10 12 17 16 18 19 20 20 22 23 24 25 24 25 24 24 25 25 25 24 23 22 20 20 20 20 22 21 21 20 20 20 20 19 19 19 19 17 17 17 17 16 15 15 16 16 16 17 17 16 16 16 17 16 16 16 17 16 16 16 15 16 16 17
33 26 20 26 24 23 24 21 22 22 23 23 24 22 26 22 20 22 20 18 18 23 16 23 20 18 13 15 14 10 10 10 10 12 14 14 16 18 19 19 20 21 22 22 25 26 24 23 23 23 24 23 22 22 21 21 20 20 21 22 22 23 22 21 20 21 20 20 21 20 19 19 17 17 17 16 16 17 17 17 17 17 17 18 17 17 17 17 16 16 16 17 16 16 17 16 17
30 27 32 23 27 23 23 25 21 25 22 20 22 21 25 17 23 17 16 16 15 13 13 13 14 12 11 10 12 15 19 15 15 16 12 16 15 16 19 21 22 21 21 22 23 26 24 24 23 23 23 22 22 22 22 22 21 21 20 21 22 24 23 22 21 21 22 22 22 21 20 19 18 18 17 17 17 17 17 17 18 18 17 17 17 16 17 16 16 16 16 16 15 15 17 17 17
31 32 31 30 31 20 24 19 27 25 23 22 22 22 23 18 14 15 15 14 13 13 15 13 14 13 12 12 13 11 15 13 11 9 10 13 16 15 18 19 21 21 20 22 22 25 25 26 25 25 25 25 24 26 24 24 23 23 21 22 23 23 22 23 22 22 22 22 21 21 21 20 20 20 19 18 18 18 19 18 18 18 18 18 17 17 16 16 16 15 16 15 15 16 17 17 17
28 29 30 29 28 29 27 29 26 32 31 28 25 28 22 17 16 11 13 13 15 16 15 15 14 15 14 12 13 11 11 11 10 8 9 10 11 14 17 20 18 20 22 24 24 23 24 25 27 28 27 28 27 27 26 25 23 23 22 22 22 22 24 23 23 23 23 23 23 22 21 22 21 20 19 19 20 18 18 19 19 20 19 19 19 19 18 16 16 16 15 14 13 15 16 16 14
Wind_Speed
8 6 7 8 8 8 8 5 8 5 7 11 11 9 5 9 7 6 3 14 5 8 11 8 10 10 9 8 10 10 8 7 6 5 3 2 1 3 4 10 10 11 11 10 11 10 11 12 13 12 12 12 11 11 12 13 13 14 14 14 14 14 14 14 14 14 14 13 13 12 13 12 11 12 12 11 11 11 13 12 13 13 13 13 15 16 15 15 15 15 15 15 14 14 14 14 13
7 8 8 7 8 6 7 6 7 8 7 10 8 7 8 13 8 7 4 12 6 4 6 10 8 9 11 12 8 9 9 8 6 6 2 2 3 2 6 6 2 7 10 9 10 9 9 10 12 13 12 12 12 12 12 13 13 13 13 14 14 14 14 14 14 15 14 13 13 11 11 11 12 12 12 12 11 12 12 13 13 12 12 14 15 15 16 15 15 15 14 14 14 14 13 13 12
9 9 8 8 7 7 8 7 9 9 6 9 8 8 10 10 8 5 5 8 4 6 9 11 10 8 7 7 9 6 3 5 6 13 4 3 5 4 6 2 2 5 8 8 9 9 8 10 11 12 13 13 12 12 12 12 12 13 13 13 14 15 14 14 15 15 14 13 12 12 12 12 12 12 12 12 12 12 12 11 11 12 15 14 14 14 15 15 15 15 15 14 14 13 13 12 11
9 9 9 7 8 7 8 6 9 10 9 8 8 12 14 5 11 3 5 7 7 2 7 10 7 5 6 8 3 3 5 2 7 13 4 4 1 1 8 14 9 5 7 7 9 9 8 11 12 12 12 12 13 13 12 12 12 13 13 14 14 14 15 15 14 13 13 13 12 12 12 12 12 12 13 12 12 12 11 9 13 13 13 13 13 13 13 15 15 15 15 14 14 13 13 12 11
9 8 9 9 9 7 6 7 9 8 11 6 3 10 6 9 7 5 8 2 4 5 6 9 7 7 9 7 2 2 4 3 10 9 8 6 3 7 4 6 7 9 9 9 9 10 10 13 12 11 12 11 12 12 12 12 12 13 13 13 14 14 15 14 13 13 12 13 13 12 12 12 12 12 13 13 12 11 10 9 13 12 13 14 12 13 11 13 15 14 14 14 13 13 12 12 10
9 8 9 9 8 4 6 8 9 11 9 8 10 6 7 8 12 7 5 4 7 7 10 8 7 6 4 5 3 2 2 2 3 6 7 6 5 6 4 2 4 6 8 8 9 9 10 13 12 10 11 11 11 11 11 12 12 12 13 13 13 14 14 13 12 12 12 13 13 12 12 12 12 12 12 12 12 11 12 14 13 13 13 12 12 12 12 13 13 13 13 13 13 12 11 10 10
7 7 7 9 9 7 8 9 11 9 12 14 9 8 1 5 4 4 3 4 5 9 2 8 7 9 7 4 7 6 6 3 3 4 4 11 8 7 1 3 3 2 7 6 7 10 13 14 12 11 11 10 11 11 11 11 11 10 11 11 11 12 13 11 11 12 13 14 13 12 12 12 12 12 12 12 12 11 14 13 13 13 13 12 11 11 11 12 13 13 13 13 13 12 11 10 8
9 10 5 9 8 7 10 10 11 9 9 11 11 11 7 8 4 3 5 13 4 7 7 8 8 4 6 4 2 4 7 5 5 10 11 14 12 8 3 2 1 7 6 8 8 9 14 13 12 11 12 11 11 11 11 12 12 13 13 11 10 11 12 12 10 12 13 13 13 13 12 12 12 12 12 13 12 12 13 13 14 14 13 12 11 11 11 12 12 12 12 12 11 11 10 9 7
8 9 7 9 10 7 9 11 10 9 13 7 10 13 16 15 7 5 5 8 4 6 4 6 3 4 5 8 7 4 3 6 5 10 13 16 15 10 6 4 4 2 5 7 10 10 11 13 11 11 11 10 11 11 11 14 13 14 13 13 11 13 13 12 12 13 13 13 13 13 12 12 11 11 11 13 12 13 14 13 14 14 14 13 11 11 11 11 11 10 11 11 11 10 10 8 6
8 7 7 7 6 10 10 10 10 8 10 9 7 9 9 7 11 4 3 13 12 5 9 10 8 8 4 7 7 4 3 3 3 8 12 13 11 7 8 6 5 4 5 7 9 10 9 13 13 11 10 10 10 10 12 14 14 14 15 14 14 14 12 10 8 10 13 12 13 13 12 12 12 11 12 12 12 12 15 13 13 14 14 12 12 10 10 10 9 9 9 10 10 10 9 8 6
8 7 8 8 8 9 9 9 10 8 10 11 12 6 10 8 7 5 19 13 10 10 8 5 8 7 5 7 7 1 3 4 4 6 13 13 5 5 6 4 6 7 5 8 9 10 10 10 13 12 11 10 9 10 12 13 14 14 14 14 14 14 12 11 9 8 14 13 13 13 12 13 12 12 12 12 12 12 14 13 13 14 13 12 11 10 9 9 8 8 9 9 9 9 9 8 6
8 8 8 8 9 8 9 9 10 11 11 8 10 4 4 6 18 20 18 18 12 12 10 9 1 2 3 4 1 5 2 7 11 2 8 13 4 5 6 5 3 4 4 6 8 9 11 10 9 12 13 13 13 14 14 13 11 13 14 15 16 15 13 11 10 10 13 13 13 13 12 12 12 12 11 11 12 15 15 13 12 13 12 12 10 9 8 8 7 7 8 9 9 9 9 8 7
10 6 7 8 7 9 9 10 10 10 6 13 9 14 14 15 14 15 15 9 12 10 9 8 1 5 3 5 3 3 0 8 9 9 11 11 5 6 5 6 6 6 4 4 7 8 11 10 9 10 12 15 16 16 14 12 11 12 13 14 13 13 14 13 12 13 13 13 13 13 13 12 12 12 12 11 11 14 14 14 13 12 12 11 10 9 8 7 7 7 8 8 9 10 9 8 7
8 5 5 8 8 10 9 8 9 10 9 6 13 10 11 8 16 12 12 12 7 5 6 4 3 4 6 5 5 3 4 8 6 7 10 14 5 2 5 5 5 4 4 3 7 9 10 10 9 10 11 11 11 14 15 12 11 12 12 11 12 12 11 12 14 14 14 13 13 13 13 13 12 12 12 12 12 13 14 13 12 12 11 11 9 8 7 7 6 7 7 9 10 11 10 9 8
8 4 6 8 9 9 7 8 12 11 9 14 12 13 15 11 15 10 10 9 6 4 3 8 8 7 3 2 2 2 4 6 7 6 10 11 6 3 8 6 4 3 1 5 4 7 8 7 5 8 9 11 11 8 7 10 12 12 12 10 11 12 10 13 14 14 13 13 13 13 13 13 12 12 12 12 12 12 14 14 12 11 11 10 9 7 7 6 6 6 8 9 10 12 11 10 8
7 7 5 7 9 9 5 11 8 9 8 13 10 15 16 10 10 7 10 4 5 7 6 5 8 7 5 6 7 4 8 11 9 4 9 10 5 7 8 6 4 3 4 5 7 6 6 0 5 5 8 9 9 9 8 9 10 11 11 11 11 10 12 14 13 13 13 13 13 13 12 10 11 9 12 10 12 12 12 10 12 11 11 10 8 7 6 6 6 6 8 10 11 12 11 9 7
4 4 6 8 7 9 7 7 7 4 7 8 10 8 4 7 6 8 8 5 4 5 6 7 9 8 12 10 10 11 6 4 5 2 5 6 3 3 6 6 3 3 5 7 6 4 2 3 1 4 3 10 9 10 8 9 9 12 11 12 12 12 12 12 13 13 12 12 12 12 11 7 6 6 7 7 11 8 11 12 12 12 10 9 8 7 6 6 6 8 10 11 12 12 11 9 7
5 3 6 9 6 9 7 4 3 4 1 4 5 9 10 6 2 6 5 6 6 6 3 6 10 14 13 7 8 4 2 6 6 2 2 2 2 3 5 6 6 6 5 5 6 1 0 3 2 0 5 10 8 7 7 6 8 9 8 8 7 8 11 11 9 8 10 8 12 9 6 5 5 5 5 9 6 8 9 13 12 11 10 9 8 7 7 7 7 8 10 12 13 12 12 5 5
8 4 3 7 9 5 4 9 8 4 6 4 3 2 4 3 4 4 5 2 3 2 4 4 9 10 7 9 3 1 3 4 6 5 6 5 2 2 3 3 5 6 6 4 3 2 1 1 2 3 6 5 6 4 2 6 8 6 7 8 8 10 9 10 7 9 9 9 9 8 6 5 6 5 5 7 6 10 9 13 13 11 10 9 9 7 7 7 8 9 10 11 11 13 8 4 5
8 5 5 9 5 4 4 8 6 11 9 5 11 10 5 3 10 8 5 5 5 3 2 1 8 7 2 3 1 2 3 1 6 7 9 4 1 3 5 5 4 5 7 8 5 3 5 4 1 4 4 7 7 3 3 2 5 5 6 5 5 5 6 6 7 7 7 7 9 6 5 6 5 4 9 11 11 6 7 11 12 11 10 9 9 6 6 6 8 8 9 10 9 6 5 5 5
2 7 7 6 13 5 13 13 4 8 10 7 1 1 2 2 4 8 8 4 5 5 7 9 9 8 3 2 2 2 2 2 4 5 11 10 4 4 4 4 3 5 6 8 7 3 3 4 3 4 3 3 7 6 4 3 2 2 1 4 3 4 4 5 5 5 3 7 8 5 7 5 5 4 4 5 4 5 5 4 6 5 4 4 8 3 3 5 5 6 5 7 5 6 6 4 4
12 4 6 5 7 14 3 17 16 5 15 9 3 5 6 4 5 8 6 2 3 6 8 6 12 11 9 7 6 4 2 3 3 2 7 10 8 6 1 6 5 3 4 7 8 4 2 5 4 3 2 3 4 3 3 2 1 2 3 1 3 2 2 1 1 2 3 3 3 7 6 5 5 5 5 6 6 6 6 5 5 5 5 5 6 4 4 4 5 6 7 7 5 4 3 6 5
6 13 13 13 4 7 6 4 8 9 3 6 4 7 2 5 9 6 6 6 5 4 8 8 5 13 11 9 7 5 5 6 4 3 4 8 6 6 4 4 5 4 3 6 6 5 3 4 4 4 2 3 4 2 3 3 4 4 5 6 3 1 2 1 1 5 3 3 6 5 6 5 5 5 6 6 5 6 6 6 6 5 6 4 5 4 5 4 5 7 7 7 5 6 5 5 4
7 3 2 6 3 5 7 5 2 4 3 8 4 1 6 11 5 2 8 7 4 6 7 7 9 13 13 8 6 5 5 5 4 3 2 6 7 7 6 5 4 4 4 5 6 4 4 4 4 4 3 2 2 3 5 6 5 5 6 8 10 4 5 6 8 7 6 9 10 5 6 7 5 6 6 5 4 5 6 7 6 7 6 5 6 6 5 5 6 5 3 4 6 4 5 3 2
7 6 1 2 2 7 7 1 2 2 6 8 1 3 6 10 8 6 9 7 5 7 5 7 9 12 12 6 4 4 5 4 4 4 3 4 6 7 4 4 6 5 5 5 5 4 2 3 4 4 1 1 3 3 5 4 3 3 2 3 4 7 11 5 2 1 3 4 4 4 3 5 5 4 6 5 6 5 6 8 8 7 6 6 6 6 4 4 6 1 3 1 1 1 1 1 2
8 7 2 8 9 3 3 9 6 5 3 5 6 8 10 11 16 10 6 3 4 5 7 8 6 9 10 10 8 6 6 5 6 6 4 5 6 7 7 7 7 4 4 6 5 2 1 1 3 5 6 4 4 3 4 3 3 3 2 4 3 1 5 10 11 6 7 8 2 2 4 2 5 4 2 3 4 5 4 3 4 7 7 6 7 4 4 4 1 1 2 2 4 2 1 1 3
8 9 8 9 11 8 3 8 6 3 4 4 5 8 6 8 8 2 2 5 4 6 8 8 7 8 8 7 8 7 6 6 8 6 5 4 5 6 9 9 10 9 7 8 5 4 3 1 2 3 4 4 4 4 4 5 4 4 3 3 2 1 3 2 2 6 6 7 10 3 2 0 1 5 5 4 4 5 2 2 3 4 5 6 6 5 4 4 3 4 3 2 2 2 2 3 3
8 6 9 8 9 5 6 4 5 4 6 5 3 8 1 16 11 4 4 7 6 8 8 8 8 9 8 7 6 6 5 5 7 9 9 9 7 7 7 7 10 10 10 13 8 6 6 4 7 5 5 4 4 3 4 5 4 2 2 2 1 3 2 3 3 2 3 6 10 14 8 2 2 1 2 6 3 3 3 3 5 3 2 3 3 3 4 3 3 2 3 1 1 3 2 3 4
9 7 7 9 8 10 7 7 8 8 2 2 1 6 10 10 6 10 9 10 10 8 9 10 9 9 7 8 7 7 7 7 7 8 9 8 7 6 8 7 7 9 7 10 9 11 14 13 8 6 4 4 3 2 2 4 4 1 2 2 2 1 1 4 7 4 4 2 3 6 9 14 12 4 1 2 2 3 3 4 4 1 4 4 3 2 3 1 1 1 1 2 2 4 3 3 3
8 11 7 6 8 13 13 9 6 4 8 5 9 2 4 13 16 12 15 11 14 8 9 9 8 12 7 7 7 8 7 8 8 6 8 8 7 7 8 7 8 7 9 9 10 9 7 6 6 4 4 4 4 3 3 3 4 3 2 2 1 1 3 3 3 3 5 3 4 5 4 2 6 13 5 2 3 3 2 2 3 1 1 3 3 4 4 2 0 0 1 1 3 2 3 2 0
8 8 8 7 6 5 5 8 6 5 12 8 5 6 4 6 17 16 16 14 9 9 10 9 7 11 13 10 7 8 10 9 8 7 7 8 8 8 7 7 8 6 8 8 9 8 6 5 6 5 6 6 5 3 4 3 3 2 1 1 1 1 3 3 4 3 3 2 2 2 3 4 4 3 11 5 4 2 2 2 2 1 3 6 3 3 2 0 2 2 0 1 2 2 1 2 0
8 6 5 7 6 1 1 5 5 8 6 5 5 8 2 11 11 13 14 12 13 11 6 9 8 9 12 12 10 10 10 10 9 9 9 9 8 8 8 8 9 7 8 8 7 8 7 5 7 6 6 6 6 5 3 3 4 3 2 2 0 1 2 3 3 3 3 3 2 2 4 2 1 4 5 9 9 7 3 2 1 2 8 7 8 7 6 5 3 3 4 2 4 4 0 3 3
8 6 6 7 5 4 6 10 5 6 8 5 7 4 4 8 13 11 10 12 15 13 13 7 8 8 7 13 13 9 11 9 9 9 10 8 9 9 8 9 8 7 7 8 7 7 6 7 8 8 7 5 5 5 4 4 4 4 3 1 1 2 2 2 3 3 3 2 2 1 1 2 2 1 4 3 5 7 8 5 2 6 6 2 1 4 3 4 3 1 3 2 2 2 4 1 2
7 3 7 4 11 9 4 6 9 4 6 7 8 7 4 6 9 12 11 12 11 8 13 10 9 8 9 7 9 12 12 12 12 12 12 11 8 10 9 9 8 8 8 8 7 7 7 7 5 5 5 5 4 4 4 3 3 3 2 2 3 3 2 2 1 2 4 3 2 2 2 2 2 1 2 2 5 4 2 5 6 7 3 3 1 2 2 2 2 3 3 3 3 3 2 3 1
3 5 4 8 7 7 10 6 10 4 7 7 4 8 7 12 13 12 12 15 11 15 12 11 11 10 8 7 7 11 13 12 14 13 14 12 10 10 9 9 8 9 8 10 9 7 6 6 6 7 6 5 4 4 3 3 3 3 2 3 3 3 3 2 2 2 3 3 3 3 2 2 2 1 2 1 3 1 3 3 5 4 2 3 3 3 4 1 2 2 2 2 3 2 2 2 4
5 7 9 11 6 3 10 9 4 3 8 10 10 8 2 8 6 5 13 12 13 11 13 14 11 10 10 8 7 7 11 11 12 14 14 11 9 10 9 9 8 8 7 9 10 9 8 8 8 7 7 5 5 5 4 4 5 5 5 5 4 5 4 4 4 4 4 4 4 3 3 2 2 2 0 1 3 1 3 1 3 1 1 3 3 2 1 1 2 1 2 2 2 2 3 3 2
9 7 4 4 10 4 6 13 5 4 4 7 11 9 3 14 8 10 8 12 11 9 9 9 11 12 10 9 8 7 5 8 12 15 14 11 10 11 10 10 8 8 7 8 9 9 9 8 7 8 7 8 6 6 5 6 6 5 5 6 6 6 5 4 4 4 4 4 4 4 3 3 2 2 2 3 2 0 5 5 4 5 3 4 3 0 1 2 2 1 0 1 2 1 1 1 2
9 9 8 13 5 7 6 7 5 6 5 7 10 6 7 7 14 14 12 13 11 10 9 8 7 14 9 9 9 10 8 6 11 10 12 13 11 11 9 9 8 9 8 8 9 9 8 8 7 7 6 8 8 6 6 6 6 6 6 6 5 5 5 5 5 6 6 5 6 5 4 3 4 4 4 3 2 2 2 3 3 4 4 3 3 3 3 1 1 2 2 1 2 1 1 1 0
8 8 8 8 9 10 7 12 3 6 2 6 8 10 7 4 7 13 18 14 9 9 9 9 7 11 14 11 10 8 8 6 11 11 12 12 13 12 9 7 8 9 8 7 7 7 7 6 7 6 5 5 6 7 6 6 6 6 6 4 5 3 3 3 2 3 4 4 5 5 5 4 4 5 6 4 4 4 3 2 3 3 3 4 4 3 3 2 1 1 2 3 2 1 0 2 1
9 8 9 9 4 6 5 6 8 5 5 7 7 11 8 8 8 8 3 7 9 10 9 9 9 8 8 9 8 9 10 6 7 10 12 13 11 11 9 7 7 7 5 5 5 7 6 7 8 8 7 7 6 7 7 6 6 5 4 4 4 2 2 2 3 2 3 2 3 5 5 6 5 5 4 4 5 5 4 4 3 3 4 3 4 5 4 4 2 2 2 2 3 3 1 2 1
10 11 10 10 15 4 7 2 3 2 9 11 11 9 8 8 10 9 11 11 8 7 8 8 7 5 4 4 6 11 15 10 9 12 11 11 12 12 11 8 8 7 9 9 8 7 6 9 9 9 8 8 7 7 8 5 5 5 6 4 4 3 1 1 2 4 4 5 3 4 5 5 6 6 5 8 7 8 7 5 5 4 4 4 3 4 5 6 5 4 4 3 3 3 1 2 2
10 13 13 10 10 11 4 10 9 7 8 10 13 8 6 3 7 7 4 9 8 4 7 10 8 7 5 6 5 6 7 12 6 9 11 9 12 12 12 10 9 10 9 9 9 9 9 9 9 9 8 7 8 8 8 6 4 5 6 5 5 4 4 4 6 6 5 6 6 4 2 1 4 6 6 8 8 7 7 7 6 5 5 5 6 5 4 4 5 6 6 6 6 5 4 3 4
10 6 11 13 9 9 7 8 8 7 9 3 6 6 6 3 7 5 6 4 7 5 3 6 7 9 10 8 9 9 11 13 13 12 13 14 13 12 13 15 12 12 12 8 8 10 11 9 9 9 9 7 8 8 9 7 7 6 7 7 6 5 5 5 3 3 4 5 5 7 6 5 7 9 9 7 9 8 6 6 6 6 6 6 6 6 6 6 6 6 6 6 7 7 6 5 5
9 4 9 6 6 7 10 10 10 10 8 11 6 5 7 6 9 4 4 7 8 7 8 11 9 8 9 12 11 8 11 14 14 11 12 14 13 12 13 14 15 12 13 10 9 10 12 11 10 10 9 8 8 8 9 8 8 7 8 8 6 6 6 5 6 5 6 6 7 10 10 12 12 12 11 9 11 9 7 7 7 6 5 6 6 7 6 6 6 6 7 8 5 5 6 6 5
9 2 5 6 6 8 9 10 9 8 8 9 9 11 10 7 6 6 6 8 9 10 10 10 11 11 9 12 14 11 12 9 10 9 9 8 8 11 13 13 13 15 14 13 12 11 11 11 11 10 9 9 8 10 9 9 8 8 8 7 7 6 6 5 5 5 5 6 7 6 6 10 11 17 16 14 10 10 8 8 8 6 6 6 6 5 6 6 7 7 7 6 5 4 5 5 3
12 12 7 5 9 11 10 8 8 9 8 8 9 7 7 8 3 4 6 8 7 8 7 2 5 8 2 6 5 15 11 12 10 10 9 12 12 11 12 12 12 12 12 13 11 10 10 11 11 10 11 8 8 9 9 10 10 9 8 7 8 6 6 5 5 6 6 6 6 7 7 7 7 6 8 10 10 10 9 8 8 9 9 8 7 6 7 8 7 7 8 7 7 7 5 5 6
6 4 8 10 8 8 8 9 8 7 6 9 11 12 8 7 2 3 3 2 2 1 4 2 5 7 5 5 6 6 11 13 13 11 9 5 7 7 8 13 13 11 9 11 11 10 9 10 11 12 11 8 8 9 9 10 9 9 8 8 9 8 8 7 6 6 7 6 6 7 7 6 6 6 6 5 5 7 8 8 8 9 8 7 8 8 8 9 7 7 7 7 7 8 7 7 6
10 7 6 7 10 8 7 7 8 6 7 9 11 13 11 8 4 8 7 3 3 4 3 2 1 1 8 5 1 2 1 11 16 13 10 10 13 12 12 13 13 13 12 11 9 9 9 10 10 12 11 10 9 9 9 8 8 8 8 7 8 7 7 6 7 7 8 7 7 6 6 6 6 5 6 6 6 6 6 7 7 6 7 6 6 5 5 5 5 5 6 6 4 4 4 6 6
7 7 8 8 8 6 6 7 6 7 8 8 10 6 6 7 8 10 5 1 3 3 3 3 3 0 4 4 3 2 5 2 1 8 15 14 9 6 5 7 10 12 12 12 11 10 10 10 11 11 10 10 9 8 8 8 8 8 8 8 7 6 6 6 6 7 7 7 6 6 6 6 6 6 6 6 6 6 5 6 6 6 5 5 5 5 4 4 5 6 5 5 6 8 7 6 6
10 10 9 8 8 7 6 6 5 6 8 10 9 4 8 3 5 5 5 10 9 7 7 4 4 3 4 2 2 4 4 5 4 3 6 11 11 10 10 9 8 8 10 11 10 10 9 9 10 10 10 9 8 8 8 8 8 7 7 7 6 5 6 6 6 5 5 5 5 5 5 5 6 6 6 6 6 7 6 5 6 6 5 5 5 5 5 5 4 6 5 5 6 5 5 6 6
11 10 10 9 9 7 5 6 7 7 7 6 11 7 4 6 2 7 12 13 9 7 3 4 1 2 2 2 5 6 5 5 7 6 7 9 9 8 8 9 10 7 7 10 10 9 9 8 8 10 9 9 8 7 7 7 7 7 7 6 6 5 6 7 7 6 5 5 5 6 6 6 6 5 6 6 6 6 6 5 6 6 5 6 6 5 4 5 5 5 6 7 7 6 6 6 5
10 11 10 10 11 7 10 6 7 7 5 6 5 5 1 4 4 4 8 7 7 7 6 3 5 3 4 4 4 3 3 5 3 10 8 10 9 7 6 7 7 9 10 6 8 8 8 8 8 9 9 7 7 8 7 7 7 6 7 7 7 7 6 5 5 5 5 5 5 5 5 5 5 5 5 5 6 6 6 6 6 5 5 4 5 6 5 5 5 5 5 4 5 4 5 5 5
7 10 11 10 8 12 6 5 9 8 5 7 4 8 7 8 8 9 8 9 8 7 6 6 3 6 4 2 2 2 4 2 5 5 9 11 8 5 5 4 5 5 2 6 6 2 7 7 7 8 9 8 8 7 7 7 7 7 8 8 7 7 7 6 6 6 6 5 5 5 5 5 4 4 5 5 5 5 5 5 4 5 5 5 4 5 5 4 4 5 5 5 5 5 5 5 4
10 10 8 11 13 12 7 5 3 5 7 4 6 11 11 8 5 6 7 7 6 6 10 9 8 7 7 5 5 4 2 3 1 5 6 11 9 7 6 5 6 6 2 3 6 9 9 8 8 9 8 9 8 7 8 8 8 8 7 7 7 7 6 6 5 5 5 5 5 5 4 4 4 4 3 4 4 5 4 5 4 4 4 5 5 5 5 5 4 4 4 3 3 3 3 3 3
16 12 7 8 3 10 9 4 5 6 6 5 11 13 11 10 4 7 11 10 9 13 9 14 13 9 7 9 8 3 4 5 5 3 4 7 7 6 4 6 7 9 7 9 5 7 8 7 7 7 8 7 7 8 8 6 6 5 5 6 7 7 6 6 5 5 5 5 5 5 4 3 3 4 3 3 3 3 4 3 3 3 3 4 4 3 3 3 4 4 4 3 2 3 3 3 3
19 15 15 11 9 6 5 4 6 6 7 7 9 9 7 7 4 9 7 10 10 6 5 5 4 4 4 2 3 8 7 5 6 5 4 8 7 6 7 4 7 11 10 7 7 7 10 12 8 7 6 7 8 8 6 6 7 6 7 6 7 8 8 7 7 6 5 5 5 5 5 4 5 4 4 3 3 3 3 3 4 3 3 3 4 4 4 3 3 3 3 4 3 3 3 4 4
11 13 12 10 8 6 9 5 9 7 5 6 5 6 6 5 1 7 7 5 4 3 4 3 1 4 6 6 8 2 4 4 5 4 4 8 7 8 8 7 7 7 7 5 7 4 8 10 5 10 9 8 7 8 8 6 6 6 6 7 7 7 8 7 7 7 6 6 6 5 4 4 3 3 4 4 4 4 5 5 5 5 4 4 4 4 4 3 3 4 3 3 3 3 4 3 3
12 10 12 12 12 11 11 9 9 11 8 5 5 7 6 3 7 3 5 6 5 7 5 5 6 4 3 2 9 7 2 2 1 1 2 2 5 7 9 8 6 5 8 12 12 10 10 9 9 9 10 9 9 7 7 7 8 7 7 7 7 7 7 6 6 6 6 5 6 5 4 4 5 4 3 4 6 4 3 4 4 5 5 4 4 4 4 4 3 3 3 3 4 3 3 3 2
Wind_Direction
277 242 244 242 247 261 270 240 260 211 236 249 258 262 248 261 255 251 246 20 28 41 73 42 38 40 40 70 91 81 43 19 23 314 8 290 205 212 156 129 138 152 139 136 134 139 138 136 133 134 134 136 134 135 132 130 130 128 124 119 117 114 110 106 103 102 103 101 104 105 107 112 110 111 113 110 107 103 97 105 109 111 115 126 110 104 110 106 103 100 99 97 97 94 93 94 96
263 242 226 243 248 255 232 233 252 275 262 256 255 246 297 269 278 275 310 93 19 20 81 70 52 45 30 77 70 112 66 46 40 79 82 42 213 211 80 93 94 138 131 132 137 138 140 137 136 135 136 136 139 138 136 134 131 127 124 121 118 115 112 110 108 109 110 110 112 114 111 106 108 105 105 105 105 105 110 113 116 125 124 101 107 114 110 108 105 102 99 96 91 91 92 92 94
290 299 270 214 247 237 276 248 256 257 261 267 292 284 232 251 263 281 137 95 125 82 83 93 69 28 54 32 65 13 83 72 87 74 98 230 177 127 108 133 207 156 137 139 141 141 138 138 135 136 138 139 141 139 138 134 131 128 124 123 120 118 115 114 113 114 117 117 115 117 115 113 108 108 109 111 111 113 118 120 127 108 98 110 112 113 113 110 106 103 99 96 95 95 96 95 95
291 277 273 248 239 211 242 240 244 251 247 233 262 271 269 258 273 214 44 84 103 228 92 86 57 39 49 68 64 91 104 95 65 120 137 225 90 142 179 160 180 190 145 148 144 141 141 137 137 138 139 139 139 138 135 133 130 130 127 124 123 121 119 117 118 120 115 113 115 114 110 110 113 114 113 113 118 119 119 125 107 104 111 109 105 100 105 111 108 103 101 101 99 98 98 99 100
278 273 264 262 263 239 257 263 252 240 261 279 260 266 285 289 307 24 70 324 78 91 120 101 86 64 73 62 34 289 71 42 69 103 145 187 194 177 225 152 149 153 151 146 139 134 126 136 137 138 137 138 136 133 133 133 136 135 131 128 126 123 123 119 118 116 114 114 114 112 112 113 114 116 118 118 117 117 125 107 103 112 108 108 111 112 121 112 110 107 102 101 101 100 101 103 104
258 260 252 254 244 297 225 240 251 254 269 242 240 262 269 241 248 208 128 68 72 78 92 87 104 138 96 57 52 93 358 43 84 102 140 176 149 150 193 90 103 134 140 135 137 129 134 136 139 138 134 137 135 134 135 139 140 139 136 131 127 125 123 122 122 121 118 114 113 112 112 115 118 119 121 120 120 122 113 101 105 107 113 108 114 120 113 114 110 108 107 103 103 102 103 106 107
246 233 238 221 247 263 267 266 269 271 263 268 281 255 128 293 290 85 207 105 76 107 89 103 118 125 134 128 100 63 68 64 81 116 106 121 140 116 360 97 102 112 140 130 135 131 134 139 141 137 135 137 135 135 137 140 129 120 118 112 109 121 118 120 119 118 119 117 115 116 116 119 122 125 126 125 121 121 108 106 111 109 110 119 119 118 116 116 114 112 109 107 106 107 107 108 111
256 269 222 231 239 211 237 252 250 250 259 253 247 247 190 230 268 326 279 117 135 81 82 119 146 107 93 172 72 58 63 75 53 101 121 115 112 107 76 348 145 142 132 144 130 127 137 138 138 137 138 138 134 134 137 121 119 126 117 118 118 120 124 130 134 128 125 122 120 121 121 122 125 128 129 125 118 115 111 117 116 117 117 119 121 117 121 121 116 112 110 111 111 113 113 109 112
236 238 270 270 247 251 255 247 258 248 264 247 279 286 311 319 315 285 40 77 102 76 78 107 120 206 83 72 63 83 41 24 99 121 121 119 119 123 141 142 143 101 137 144 125 131 134 138 136 135 137 136 133 134 131 123 131 123 124 135 138 135 135 136 133 133 126 125 124 123 122 123 123 125 125 127 124 116 109 115 118 119 120 120 122 117 108 108 113 115 113 116 118 118 117 115 113
241 233 218 248 265 256 251 258 257 256 251 250 240 230 212 258 277 307 34 97 101 42 94 64 45 52 127 74 102 50 5 346 141 119 99 87 79 104 97 112 145 178 177 133 132 135 133 137 134 133 129 131 130 131 128 124 127 128 137 140 139 133 131 125 119 127 126 128 125 125 125 125 126 126 128 130 130 126 120 123 123 121 122 117 112 110 108 108 113 117 119 121 125 125 123 121 122
229 201 263 255 239 257 253 259 266 255 252 257 234 265 280 200 232 13 48 68 84 89 86 53 68 43 55 77 60 360 318 342 83 53 102 87 97 128 146 133 143 176 148 139 143 135 133 134 135 126 125 124 121 114 114 127 131 137 135 134 127 134 134 136 136 135 135 133 130 128 129 129 132 132 135 136 136 128 123 129 129 124 121 119 115 113 113 111 114 119 126 132 133 134 131 130 131
240 227 194 245 257 252 259 267 252 261 262 226 277 263 267 1 43 49 46 38 22 58 44 38 129 311 58 68 358 267 286 53 53 13 71 94 75 243 155 141 114 97 122 136 130 135 136 135 134 125 120 113 105 107 119 119 125 126 131 138 136 141 143 145 149 146 140 137 133 130 131 133 135 137 135 138 138 123 126 133 134 127 123 124 122 120 120 120 121 128 133 140 143 143 139 136 139
259 246 243 245 247 246 270 261 259 267 278 358 359 5 33 48 73 71 76 70 55 9 39 25 33 227 80 82 213 301 202 103 169 181 105 93 124 271 24 50 37 40 74 122 129 131 142 142 134 131 120 116 112 114 125 139 132 126 137 144 146 146 151 153 154 148 144 143 139 137 135 136 139 140 137 133 134 133 135 140 138 131 126 127 130 128 124 129 133 140 146 148 148 147 146 144 149
248 234 245 252 260 272 267 262 268 253 44 345 9 343 67 3 68 81 66 67 66 62 59 33 9 346 90 144 144 191 148 147 169 122 112 115 154 256 84 52 54 69 71 77 141 151 145 139 130 127 129 129 120 122 130 136 136 142 144 150 151 150 155 156 154 152 147 147 144 141 139 139 143 144 144 141 139 140 140 140 138 134 129 130 136 134 130 132 141 147 158 156 154 151 149 154 166
232 231 246 247 267 266 253 272 4 24 29 352 29 356 20 25 62 24 66 56 61 82 110 51 348 276 47 302 178 196 165 143 95 67 100 102 163 167 111 89 93 74 79 134 126 108 52 14 116 136 138 135 128 124 131 139 143 146 144 153 152 157 169 160 155 150 150 150 148 143 142 143 145 148 147 148 145 147 148 147 143 133 137 141 139 138 135 131 137 153 161 163 157 154 155 159 176
254 260 263 267 256 260 23 333 9 7 10 344 8 354 42 338 17 57 90 71 95 59 19 40 32 34 65 10 8 11 62 42 48 51 92 114 164 131 111 119 106 92 87 64 27 39 83 210 309 145 143 136 122 131 132 139 143 150 151 159 161 169 169 159 157 155 156 153 150 148 148 145 143 145 148 148 150 151 155 157 148 141 147 147 143 140 136 134 136 140 149 154 155 154 156 162 172
276 268 1 333 293 315 330 326 6 5 349 357 341 351 74 3 27 68 77 54 68 80 77 55 48 53 55 47 34 52 72 119 63 358 62 121 132 135 118 121 119 99 108 83 85 48 161 186 33 20 100 130 131 129 136 142 150 151 150 154 161 166 165 163 160 160 161 160 153 156 155 150 146 140 154 154 154 157 165 154 150 152 153 152 150 146 142 145 143 136 142 150 154 155 157 158 173
196 60 317 320 325 272 27 1 14 101 12 34 356 7 330 49 24 78 86 68 37 105 60 73 59 55 67 66 84 116 102 92 114 128 104 64 143 129 128 135 144 138 101 86 64 296 160 41 345 355 58 107 121 135 137 143 153 157 155 160 171 177 168 166 165 168 169 165 166 162 168 165 156 165 156 152 166 162 160 158 156 160 157 158 159 156 153 159 156 151 146 151 155 155 154 160 174
107 83 321 252 265 313 266 137 157 129 121 153 245 298 269 42 136 96 84 55 84 26 40 90 89 59 27 69 48 302 53 116 129 160 126 206 166 157 108 126 144 126 112 98 107 206 82 82 261 96 115 109 100 90 112 145 159 168 172 166 169 176 174 172 179 178 176 173 172 178 178 167 171 169 152 167 148 161 161 163 164 163 164 166 170 167 163 171 174 164 161 159 160 160 169 174 181
109 100 260 280 229 234 150 305 186 155 165 186 226 193 184 191 200 135 91 74 124 231 41 141 117 84 309 77 61 317 18 307 159 169 164 183 211 189 158 146 143 116 113 119 144 206 195 166 160 69 90 118 124 104 152 224 176 176 168 176 157 178 180 182 187 190 185 179 179 185 188 177 163 175 171 155 149 152 162 168 166 167 173 175 177 177 174 181 192 184 170 171 172 179 210 183 182
269 174 273 224 199 227 185 201 275 158 130 183 163 140 184 283 352 86 106 176 228 72 36 1 93 119 213 169 209 291 321 286 265 165 152 109 145 254 182 133 129 123 111 125 133 190 186 118 87 74 78 91 123 142 162 156 258 343 259 163 167 177 181 207 193 189 213 193 178 183 191 182 165 178 155 149 142 148 163 174 167 174 181 186 184 200 180 184 201 183 179 184 201 198 199 211 166
178 188 235 263 229 195 188 181 204 155 175 180 124 137 175 197 68 45 41 338 33 45 59 35 88 143 154 192 202 184 195 268 251 152 113 124 157 177 182 119 124 107 118 120 124 152 122 111 106 103 68 63 91 109 114 77 48 341 2 314 160 170 171 239 357 19 249 344 196 190 185 185 167 169 161 167 160 158 166 172 178 181 185 191 189 209 198 177 208 200 168 191 201 218 192 228 169
274 182 211 225 235 329 98 264 98 236 226 129 178 93 352 100 81 64 53 48 73 40 77 71 105 141 160 169 174 191 172 215 177 180 137 124 152 161 159 152 131 130 130 110 113 135 106 86 83 98 74 93 75 59 56 57 26 9 358 347 331 48 354 273 4 229 239 207 248 207 166 179 172 169 173 186 166 166 167 171 186 180 188 186 193 218 203 179 217 224 172 176 195 189 196 194 174
252 9 76 228 33 245 52 289 98 287 191 126 92 189 231 88 68 19 85 79 61 85 88 121 116 113 138 166 187 170 208 204 186 147 154 131 153 145 164 135 114 106 94 96 109 119 113 101 64 40 17 76 65 38 51 40 24 21 2 3 340 318 214 197 199 204 205 191 218 200 187 168 177 178 184 168 191 180 177 175 185 174 191 183 197 224 201 194 231 230 149 203 175 165 182 212 129
284 280 37 325 240 229 171 142 282 154 257 101 126 192 85 64 92 117 72 94 94 99 115 111 120 127 142 152 201 178 190 159 164 141 135 136 142 150 161 120 113 109 106 103 88 90 78 85 92 116 270 123 79 75 81 80 71 49 71 49 327 341 314 285 270 244 209 204 217 205 215 168 163 191 177 183 185 193 194 186 191 168 182 187 195 222 192 199 234 273 140 334 33 64 338 2 114
203 237 252 250 247 237 97 246 204 81 271 100 197 120 112 105 83 60 13 79 100 106 105 112 122 130 139 157 168 189 162 179 138 146 180 149 146 155 150 139 119 107 130 108 93 104 121 28 127 147 177 151 122 127 117 118 90 78 77 133 130 48 288 326 340 10 345 316 248 212 229 194 152 205 182 165 193 210 219 187 180 171 181 179 192 201 199 197 241 272 146 233 161 176 187 86 340
5 321 275 301 312 341 133 292 101 21 323 128 58 346 96 111 98 38 324 275 154 132 129 143 151 138 138 148 158 167 179 167 156 153 158 159 171 162 153 154 142 159 157 132 136 164 161 135 266 196 135 150 149 154 160 124 134 138 181 143 114 225 190 153 356 351 346 320 310 269 231 253 221 158 138 222 207 198 190 248 244 171 193 166 184 186 193 188 212 184 215 207 189 159 125 145 212
282 299 337 305 266 231 300 235 232 227 177 84 160 136 326 89 85 153 257 244 178 177 158 165 166 141 142 147 175 156 175 173 165 157 167 176 180 171 163 159 144 150 156 142 155 158 143 177 217 175 158 164 176 153 108 101 76 81 48 42 90 231 215 101 70 49 312 346 327 329 336 303 283 294 158 199 176 202 172 214 254 179 146 116 210 191 173 185 179 206 205 188 79 61 359 243 145
290 304 272 266 273 292 217 232 252 152 193 247 18 181 155 126 136 171 203 220 195 192 169 175 162 140 149 165 179 164 176 185 179 181 170 177 171 172 173 157 157 150 148 127 156 163 159 177 173 168 161 163 174 126 101 105 118 199 132 171 208 155 313 130 125 182 146 183 300 284 350 343 332 311 320 298 184 217 167 215 250 188 156 154 213 182 190 58 225 252 41 231 119 178 186 221 186
263 249 253 286 265 225 222 186 253 220 137 221 160 271 186 124 155 173 190 212 204 189 184 195 156 139 172 188 176 162 174 188 181 190 169 164 166 174 176 168 162 168 144 141 149 149 144 157 144 149 180 178 160 143 137 128 141 163 200 201 195 144 106 40 103 198 160 174 226 156 110 41 345 319 298 278 229 206 180 195 238 270 53 177 178 174 142 171 119 143 235 221 201 196 214 191 219
261 283 242 276 317 284 279 164 177 243 139 197 179 281 114 117 144 170 183 188 194 199 180 214 168 164 163 178 188 182 177 182 182 181 169 160 168 167 171 154 166 173 137 145 145 144 158 158 153 151 184 177 159 155 148 129 131 138 218 230 149 76 106 136 172 201 97 67 111 101 103 152 178 246 301 291 304 256 167 185 265 280 34 356 337 80 75 86 71 307 21 11 347 238 352 338 269
242 268 246 248 254 82 306 142 222 258 147 233 259 251 100 145 162 175 170 184 178 196 221 205 161 176 167 161 185 184 177 177 176 178 171 165 164 155 162 160 170 153 146 145 144 153 166 182 155 153 181 165 164 164 146 142 140 134 230 251 48 97 165 174 171 153 147 139 208 136 144 148 21 314 335 355 326 333 340 203 83 60 49 29 329 21 30 27 22 343 6 358 13 332 309 24 31
231 257 329 305 292 278 248 172 249 201 285 205 184 291 168 163 175 183 195 197 194 173 206 160 203 165 177 161 174 177 168 171 172 179 173 168 166 156 160 159 177 154 150 149 156 162 171 183 166 159 165 178 171 156 150 154 154 167 192 222 231 216 189 184 174 136 110 147 99 49 80 130 148 239 323 43 36 345 323 303 11 61 98 180 108 38 11 54 348 6 40 9 76 33 335 357 42
301 234 255 152 257 302 332 107 223 239 139 284 241 236 233 164 182 183 200 209 195 165 206 175 179 165 196 163 167 166 168 172 175 179 174 174 160 155 163 165 178 156 161 157 169 172 177 189 168 173 175 175 166 153 159 163 171 168 187 177 248 237 237 198 185 133 148 143 130 152 169 150 165 148 75 216 174 145 284 359 18 38 61 74 47 70 90 101 42 17 13 7 14 67 355 319 346
244 272 300 314 321 253 290 285 104 291 203 219 301 291 193 166 186 182 191 201 217 193 183 186 172 182 175 174 190 164 166 175 175 173 175 171 159 156 163 164 177 175 169 170 174 183 186 179 178 184 184 170 158 158 164 171 167 159 153 200 239 246 233 220 226 195 159 150 155 166 165 126 202 106 184 237 57 74 296 36 49 14 360 107 66 31 8 29 88 35 9 15 356 21 5 3 11
208 209 221 226 236 164 260 72 150 100 314 300 278 250 249 179 195 181 187 198 204 213 163 176 181 173 163 186 177 197 176 175 163 167 170 172 162 156 164 167 177 185 177 172 179 181 185 184 182 179 174 172 169 168 178 190 178 183 185 190 213 222 217 219 204 198 165 161 167 160 176 168 194 144 250 145 245 124 85 45 98 289 309 61 81 96 237 24 62 71 11 8 27 5 358 8 6
315 316 327 300 263 312 240 218 128 125 303 254 262 292 284 170 186 152 235 209 207 203 197 180 178 164 168 172 178 198 190 178 150 163 169 160 159 156 164 168 179 185 181 170 176 184 185 191 183 183 174 169 181 177 189 193 191 178 195 196 204 202 208 210 213 190 175 168 166 164 175 173 164 146 221 220 226 184 143 155 186 161 178 125 107 340 354 30 79 78 129 44 2 29 342 16 343
322 298 282 269 282 231 286 38 153 228 231 295 291 245 241 212 185 165 201 227 198 193 196 188 206 152 161 177 187 189 183 175 158 154 167 151 165 165 167 166 174 185 197 177 187 190 192 195 198 190 177 177 180 183 190 200 192 188 185 196 196 202 197 205 203 197 193 169 169 159 148 171 181 184 205 202 226 221 184 152 148 134 137 129 138 186 148 101 196 157 83 97 72 16 310 348 246
251 245 253 249 258 289 292 243 304 324 274 276 277 283 290 259 246 193 192 205 193 192 196 192 197 152 169 187 186 187 154 192 152 160 164 162 170 165 169 181 180 188 202 204 194 194 196 202 206 201 192 187 183 188 196 197 197 197 185 170 184 185 218 205 209 204 169 167 164 151 164 180 199 192 197 195 190 206 211 158 144 137 147 143 149 153 125 172 213 142 142 185 157 96 82 310 12
262 254 237 241 209 206 260 186 110 217 213 276 292 310 296 292 291 296 272 227 201 198 198 192 186 192 201 176 189 192 164 152 176 170 171 168 172 168 169 187 195 168 180 231 221 204 201 207 208 200 198 200 192 192 204 204 188 191 148 143 156 169 151 187 223 205 122 155 176 159 157 173 196 209 188 199 201 197 188 188 160 168 150 164 159 153 152 154 150 177 214 233 112 102 58 281 167
228 245 277 275 287 321 348 18 173 140 240 233 254 252 259 242 243 253 210 202 224 207 187 184 182 210 181 189 170 150 155 180 177 171 170 164 171 177 174 180 211 197 171 201 217 208 208 206 203 201 200 200 197 193 199 207 187 171 145 145 141 157 155 188 203 208 172 157 170 213 204 171 199 201 196 212 212 196 191 175 168 167 164 163 172 158 165 167 164 163 187 177 136 145 153 254 226
258 237 238 258 262 292 304 296 298 305 311 276 223 229 254 299 275 247 286 191 190 209 210 183 188 178 171 178 182 159 143 122 206 162 170 172 175 175 169 165 204 226 209 184 201 214 214 211 205 202 202 197 196 197 198 183 190 180 167 178 186 193 187 193 207 196 173 179 190 190 201 197 264 250 208 204 220 203 182 174 169 174 175 165 170 181 171 166 162 173 180 168 175 189 180 208 217
255 294 262 211 275 317 292 287 299 266 262 2 32 292 295 258 247 204 234 253 168 162 231 264 203 189 187 192 189 182 162 155 179 176 178 181 184 179 177 169 190 215 226 195 184 203 213 215 208 202 198 195 192 198 196 183 190 196 188 198 194 185 193 210 201 189 192 193 177 171 180 167 226 230 234 204 215 199 181 177 180 178 174 177 176 172 188 181 184 187 180 179 190 181 191 204 206
255 46 286 300 205 238 259 259 264 279 283 290 241 225 264 270 281 260 167 222 199 172 210 218 223 215 202 184 195 190 188 180 175 170 178 169 176 182 180 186 180 204 218 215 203 201 208 211 206 202 199 193 189 193 194 188 195 196 197 202 205 201 204 197 184 195 200 201 178 178 161 176 191 196 220 222 214 185 177 184 179 178 173 189 181 177 186 187 187 193 187 191 192 186 191 203 206
267 121 344 312 316 266 267 277 281 276 285 272 269 234 233 242 270 274 193 223 198 211 213 221 213 198 216 199 188 190 196 153 154 172 144 142 175 177 177 193 193 188 200 204 202 198 201 207 207 202 199 194 188 185 185 194 199 195 199 203 211 208 209 208 192 201 207 207 180 173 170 175 175 176 190 215 198 186 172 183 182 178 182 194 206 174 183 200 199 179 178 186 184 179 209 210 225
240 281 341 320 284 288 298 293 265 263 254 252 247 245 260 270 246 274 197 205 209 212 221 237 226 219 179 39 150 175 162 139 159 159 160 168 186 192 183 188 194 200 190 196 200 198 196 198 203 202 203 200 193 186 186 196 201 199 197 199 210 204 205 215 205 187 210 191 187 188 186 190 189 200 189 182 193 191 183 181 185 188 189 194 202 183 190 200 196 180 186 193 180 191 201 217 212
302 107 271 282 269 263 253 239 261 288 272 269 273 273 276 285 270 258 286 155 127 26 137 153 59 47 43 147 121 127 152 158 149 163 176 173 148 175 167 194 197 196 198 191 195 201 195 196 197 199 204 199 197 193 194 199 198 200 206 204 207 205 202 209 198 197 196 188 201 185 191 199 196 191 197 201 190 194 168 203 188 191 195 187 197 195 189 198 185 175 185 174 198 190 187 199 213
241 270 277 262 258 241 236 253 245 248 255 258 252 251 235 245 204 244 125 121 129 171 176 80 200 158 112 87 286 198 228 150 166 168 172 182 182 191 183 192 190 191 190 189 195 193 198 201 194 198 198 197 195 191 194 202 200 204 209 213 211 200 205 210 199 207 195 197 197 192 191 198 199 193 189 195 201 200 193 188 190 192 193 188 193 204 196 179 174 179 183 187 160 231 203 199 202
251 252 256 266 270 231 228 232 235 232 248 259 287 245 202 211 258 275 268 279 157 134 97 61 77 30 46 63 11 24 167 284 183 169 166 185 162 157 191 201 190 192 187 189 190 191 196 200 200 198 198 198 196 187 193 200 203 204 206 214 212 195 201 221 222 209 202 198 196 199 192 200 194 198 195 196 195 201 197 189 185 196 171 192 189 203 198 192 183 178 191 190 185 194 197 204 197
228 231 232 238 250 253 255 244 251 263 244 248 247 246 249 344 294 267 237 96 85 71 60 28 27 2 5 33 191 224 241 180 201 141 127 145 152 181 168 195 209 206 190 184 192 192 196 200 199 202 199 194 195 194 197 200 207 210 209 212 213 189 197 207 222 228 212 201 190 199 198 196 202 199 193 194 194 192 200 188 185 188 192 185 186 195 185 198 172 172 189 191 200 201 194 208 213
209 224 226 233 241 251 251 229 234 234 260 233 224 246 215 242 146 34 78 90 97 92 88 105 118 19 353 276 284 276 275 188 165 147 164 137 145 160 179 183 180 212 211 195 190 194 193 198 201 200 201 192 194 193 194 203 206 211 209 210 213 209 205 201 208 216 215 206 191 197 202 199 204 194 197 187 192 190 191 193 181 192 192 189 185 183 191 184 192 185 188 193 195 194 199 199 206
234 207 217 234 237 239 264 289 293 281 280 293 252 241 185 237 88 190 144 133 141 124 127 150 165 204 204 219 231 275 289 285 195 162 147 140 144 162 174 181 174 188 201 193 210 192 194 196 199 199 201 195 194 187 196 203 207 208 209 208 208 210 211 209 208 203 215 203 203 203 199 201 196 189 189 192 193 188 190 194 182 190 187 188 184 184 184 187 184 182 188 191 191 181 194 197 201
226 237 224 220 244 263 264 246 254 275 268 265 293 286 240 235 190 213 181 144 139 154 167 154 178 181 175 241 316 226 241 297 303 132 141 132 136 149 158 178 178 118 136 208 200 195 232 208 198 195 195 200 187 194 196 203 209 209 209 209 203 207 208 212 208 206 208 204 205 204 205 203 201 193 190 187 188 190 184 191 187 185 186 186 185 190 188 185 183 180 186 192 198 187 187 199 200
262 249 245 228 211 227 230 259 253 238 249 252 234 249 257 249 245 185 148 139 167 178 179 170 166 186 181 171 165 236 218 237 156 60 94 132 144 156 170 185 170 123 108 306 206 199 204 202 201 194 199 195 182 190 202 206 208 212 216 211 210 208 210 213 212 214 206 208 197 206 202 203 196 202 201 184 187 183 186 190 190 191 183 187 188 183 188 187 180 183 194 202 196 188 190 191 200
241 243 267 259 170 215 235 269 245 248 246 256 233 234 243 239 232 170 150 186 168 219 166 182 173 182 197 160 175 193 213 156 120 237 165 128 138 162 170 161 125 106 138 207 233 250 204 213 196 204 198 191 180 192 207 215 212 217 218 216 212 210 213 211 208 209 212 215 208 199 203 203 194 197 205 200 187 187 180 189 192 200 192 187 186 182 189 199 187 179 190 199 208 198 202 204 198
220 243 256 254 272 272 271 219 256 246 263 255 262 261 251 221 162 183 195 195 181 235 126 318 285 111 133 100 302 151 188 148 150 206 194 137 148 163 175 158 165 151 175 208 223 218 213 191 188 178 202 197 185 195 210 221 217 207 211 219 211 212 210 210 203 204 214 213 212 202 205 209 197 184 191 201 189 194 193 194 189 205 203 195 186 184 183 194 192 179 184 183 194 211 205 207 206
209 218 238 246 253 231 243 234 236 240 242 247 266 249 237 273 55 167 207 184 177 163 184 208 303 266 235 164 163 211 26 48 30 24 39 145 159 164 169 168 177 129 136 141 84 49 331 318 248 195 188 186 180 189 199 225 231 214 215 218 221 211 213 209 204 201 208 210 214 205 206 204 206 195 188 197 201 200 207 201 197 193 208 200 196 183 181 184 192 182 185 190 200 208 220 215 219
249 222 218 236 244 226 221 246 218 226 237 239 240 247 272 222 116 178 123 125 167 166 199 223 211 214 226 161 97 106 62 8 79 131 135 5 156 171 159 165 165 180 172 171 153 183 197 198 236 213 190 187 189 189 193 215 223 219 216 215 219 215 212 210 211 198 212 209 207 211 201 217 214 204 198 203 208 204 204 207 202 200 204 218 196 205 183 182 187 193 188 178 186 211 223 230 216